Hourly Data Report for March 14, 2017

All times are specified in Local Standard Time (LST). Add 1 hour to adjust for Daylight Saving Time where and when it is observed.

TORONTO CITY
ONTARIO

43°40'00.000" N
79°24'00.000" W
112.50 m
6158355
71508
XTO

Download Data

Hourly Data (March 2017)
Hourly Data Report for March 14, 2017
TIME Temp Definition
°C
Dew Point Definition
°C
Rel Hum Definition
%
Wind Dir Definition
10's deg

Wind Spd Definition
km/h
Visibility Definition
km
Stn Press Definition
kPa
Hmdx Definition


Wind Chill Definition


Weather Definition


00:00 -8.4 -11.7 77 LegendMM LegendMM   101.05     LegendNANA
01:00 -8.7 -12.0 77 LegendMM LegendMM   100.98     LegendNANA
02:00 -8.7 -11.8 78 LegendMM LegendMM   100.92     LegendNANA
03:00 -9.1 -12.2 78 LegendMM LegendMM   100.83     LegendNANA
04:00 -9.5 -12.6 78 LegendMM LegendMM   100.74     LegendNANA
05:00 -9.9 -12.6 81 LegendMM LegendMM   100.72     LegendNANA
06:00 -10.1 -12.7 81 LegendMM LegendMM   100.69     LegendNANA
07:00 -10.0 -12.9 79 LegendMM LegendMM   100.65     LegendNANA
08:00 -10.0 -13.2 77 LegendMM LegendMM   100.60     LegendNANA
09:00 -9.9 -13.2 77 LegendMM LegendMM   100.55     LegendNANA
10:00 -9.6 -12.7 78 LegendMM LegendMM   100.44     LegendNANA
11:00 -9.3 -12.8 76 LegendMM LegendMM   100.37     LegendNANA
12:00 -8.9 -12.4 76 LegendMM LegendMM   100.28     LegendNANA
13:00 -8.3 -12.4 72 LegendMM LegendMM   100.14     LegendNANA
14:00 -7.9 -12.4 70 LegendMM LegendMM   100.09     LegendNANA
15:00 -7.5 -12.5 67 LegendMM LegendMM   100.09     LegendNANA
16:00 -7.5 -11.6 72 LegendMM LegendMM   100.06     LegendNANA
17:00 -7.9 -10.9 79 LegendMM LegendMM   100.02     LegendNANA
18:00 -7.7 -11.3 75 LegendMM LegendMM   100.03     LegendNANA
19:00 -7.8 -12.1 72 LegendMM LegendMM   100.04     LegendNANA
20:00 -8.2 -11.2 79 LegendMM LegendMM   100.02     LegendNANA
21:00 -8.4 -11.2 80 LegendMM LegendMM   99.96     LegendNANA
22:00 -8.4 -11.6 78 LegendMM LegendMM   99.88     LegendNANA
23:00 -8.3 -13.7 65 LegendMM LegendMM   99.77     LegendNANA

Notes on Data Quality.

Legend

  • E = Estimated
  • M = Missing
  • NA = Not Available
Date modified: